Regional Weather Roundup
Issued by NWS

Home | Current Version | Previous Version | Text Only | Print | Product List | Glossary Off
Versions: 1 2 3 4 5 6 7 8 9 10 11 12 13 14 15 16 17 18 19 20 21 22 23 24 25 26 27 28 29 30 31 32 33 34 35 36 37 38 39 40 41 42 43 44 45 46 47 48 49 50

344
ASUS45 KCYS 291710
RWRWY

WYOMING REGIONAL WEATHER ROUNDUP
NATIONAL WEATHER SERVICE CHEYENNE WY
1100 AM MDT FRI JUL 29 2016

NOTE:  "FAIR" INDICATES FEW OR NO CLOUDS BELOW 12,000 FEET
WITH NO SIGNIFICANT WEATHER AND/OR OBSTRUCTIONS TO VISIBILITY.

WYZ001-291800-
YELLOWSTONE NATIONAL PARK

CITY           SKY/WX    TMP DP  RH WIND       PRES   REMARKS
LK YELLOWSTONE   N/A     63  43  48 E5        30.34F
W YELLOWSTONE  NOT AVBL

$$
WYZ002>013-054>058-071-098>099-291800-
NORTHERN WYOMING

CITY           SKY/WX    TMP DP  RH WIND       PRES   REMARKS
JACKSON        SUNNY     70  43  37 S6        30.24F
CODY           FAIR      75  52  43 NE3       30.15F
GREYBULL       FAIR      79  48  33 VRB3      30.07F
WORLAND        FAIR      80  48  32 N7        30.08F
SHERIDAN       FAIR      78  51  38 NE5       30.10F
BUFFALO        FAIR      78  43  28 N9        30.16S
GILLETTE       FAIR      76  54  46 CALM      30.11F
HULETT         FAIR      73  54  49 W5        30.13F
NEWCASTLE      FAIR      72  52  49 CALM      30.14F

$$
WYZ014>020-022>026-101>103-291800-
CENTRAL WYOMING

CITY           SKY/WX    TMP DP  RH WIND       PRES   REMARKS
BIG PINEY      FAIR      72  45  37 S7        30.29F
PINEDALE       FAIR      72  41  33 E3        30.30F
DUBOIS         FAIR      72  41  33 E6        30.26F
LANDER         FAIR      74  49  41 NE6       30.17F
RIVERTON       FAIR      75  49  39 CALM      30.17F
CASPER         FAIR      80  48  32 W9        30.16F
DOUGLAS          N/A    N/A N/A N/A MISG      30.15F

$$
WYZ021-027>030-104>119-291800-
SOUTHERN WYOMING

CITY           SKY/WX    TMP DP  RH WIND       PRES   REMARKS
EVANSTON       FAIR      81  31  16 SW12      30.29F
KEMMERER         N/A     73  36  25 S5        30.30S
FORT BRIDGER   FAIR      78  35  21 W3        30.30F
ROCK SPRINGS   FAIR      76  44  32 CALM      30.26S
DIXON          FAIR      75  44  33 W3        30.28S
RAWLINS        FAIR      75  48  38 CALM      30.26F
SARATOGA       FAIR      77  45  31 E8        30.28F
LARAMIE        FAIR      73  44  35 CALM      30.29F
CHEYENNE       FAIR      73  57  57 VRB5      30.24R
TORRINGTON     FAIR      78  57  48 S9        30.13S
PINE BLUFFS    FAIR      73  55  53 SE8       30.21F

$$




USA.gov is the U.S. government's official web portal to all federal, state and local government web resources and services.